This is the latest recevied weather packets stored in our database for station/object N3TJJ-2. If no packets are shown the sender has not sent any weather packets the latest 10 day(s).
| Time | Temp. | Humidity | Pressure | Rain* | Wind** | Luminosity | Snow |
|---|---|---|---|---|---|---|---|
| 1777396632 | 13.89° C | 70% | 1021.2 hPa | 0 mm | - | - | - |
| 1777396270 | 14.44° C | 73% | 1021.3 hPa | 0 mm | - | - | - |
| 1777395909 | 14.44° C | 74% | 1021.2 hPa | 0 mm | - | - | - |
| 1777395555 | 13.89° C | 73% | 1021.2 hPa | 0 mm | - | - | - |
| 1777395188 | 13.89° C | 72% | 1021.2 hPa | 0 mm | - | - | - |
| 1777394828 | 14.44° C | 73% | 1021.4 hPa | 0 mm | - | - | - |
| 1777394471 | 14.44° C | 74% | 1021.4 hPa | 0 mm | - | - | - |
| 1777394117 | 14.44° C | 73% | 1021.3 hPa | 0 mm | - | - | - |
| 1777393749 | 14.44° C | 71% | 1021.5 hPa | 0 mm | - | - | - |
| 1777393417 | 14.44° C | 72% | 1021.7 hPa | 0 mm | - | - | - |
| 1777393028 | 14.44° C | 73% | 1021.8 hPa | 0 mm | - | - | - |
| 1777392675 | 14.44° C | 72% | 1022.2 hPa | 0 mm | - | - | - |
| 1777392308 | 14.44° C | 73% | 1022.2 hPa | 0 mm | - | - | - |
| 1777391956 | 13.89° C | 73% | 1022.4 hPa | 0 mm | - | - | - |
| 1777391588 | 13.89° C | 76% | 1022.3 hPa | 0 mm | - | - | - |
| 1777391228 | 13.33° C | 76% | 1022.2 hPa | 0 mm | - | - | - |
| 1777390869 | 13.33° C | 76% | 1022.1 hPa | 0 mm | - | - | - |
| 1777390600 | 12.78° C | 77% | 1022.1 hPa | 0 mm | - | - | - |
| 1777390508 | 12.78° C | 77% | 1022.1 hPa | 0 mm | - | - | - |
| 1777390148 | 12.78° C | 76% | 1022.2 hPa | 0 mm | - | - | - |
| 1777389801 | 12.78° C | 76% | 1022.3 hPa | 0 mm | - | - | - |
| 1777389428 | 12.78° C | 77% | 1022.3 hPa | 0 mm | - | - | - |
| 1777389070 | 12.78° C | 77% | 1022.4 hPa | 0 mm | - | - | - |
| 1777388708 | 12.78° C | 77% | 1022.5 hPa | 0 mm | - | - | - |
| 1777388348 | 12.22° C | 78% | 1022.8 hPa | 0 mm | - | - | - |
* Rain latest hour (hover to see other rain measurements)
** Current wind speed in m/s (hover to see current wind gust speed)